CW4135 Weather Reports


time (UTC)temp
C
wind
direction
speed
KPH
gust
KPH
rain 1hr
cm
rain 24hr
cm
rain mn
cm
humidity
%
barometer
mb
20260510202325 27 98 1.6 22.5 0.00 0.00 0.00 30 1019.1
20260510201340 27 11 9.7 17.7 0.00 0.00 0.00 31 1019.0
20260510200339 26 36 19.3 29.0 0.00 0.00 0.00 31 1018.6
20260510195334 27 309 11.3 30.6 0.00 0.00 0.00 30 1018.3
20260510194332 28 350 14.5 33.8 0.00 0.00 0.00 29 1017.9
20260510193331 28 47 0.0 24.1 0.00 0.00 0.00 21 1017.7
20260510192325 28 27 12.9 22.5 0.00 0.00 0.00 25 1017.9
20260510191323 26 31 6.4 29.0 0.00 0.00 0.00 30 1017.9
20260510190325 27 345 8.0 27.4 0.00 0.00 0.00 30 1018.5
20260510185340 27 298 8.0 30.6 0.00 0.00 0.00 28 1018.3
20260510184335 29 325 14.5 25.7 0.00 0.00 0.00 25 1018.0
20260510183329 31 12 9.7 27.4 0.00 0.00 0.00 22 1017.8
20260510182331 31 343 6.4 20.9 0.00 0.00 0.00 20 1017.9
20260510181325 32 277 9.7 19.3 0.00 0.00 0.00 17 1017.9
20260510180340 32 281 4.8 20.9 0.00 0.00 0.00 14 1017.8
20260510175338 32 283 1.6 20.9 0.00 0.00 0.00 16 1018.0
20260510174334 31 248 3.2 22.5 0.00 0.00 0.00 13 1018.1
20260510173332 31 300 12.9 20.9 0.00 0.00 0.00 13 1017.3
20260510172329 31 293 11.3 20.9 0.00 0.00 0.00 16 1017.3
20260510171331 31 290 14.5 22.5 0.00 0.00 0.00 15 1017.4
20260510170326 31 273 0.0 16.1 0.00 0.00 0.00 16 1017.3
20260510165340 30 273 9.7 16.1 0.00 0.00 0.00 15 1017.3
20260510164339 30 281 8.0 20.9 0.00 0.00 0.00 16 1017.3
20260510163336 30 282 6.4 16.1 0.00 0.00 0.00 18 1017.3
20260510162330 29 273 4.8 14.5 0.00 0.00 0.00 19 1018.3
20260510161329 28 218 4.8 17.7 0.00 0.00 0.00 20 1018.2
20260510160326 28 228 3.2 19.3 0.00 0.00 0.00 21 1018.3
20260510155340 27 288 8.0 20.9 0.00 0.00 0.00 22 1018.2
20260510154335 27 229 4.8 17.7 0.00 0.00 0.00 24 1018.2
20260510153338 27 273 6.4 17.7 0.00 0.00 0.00 26 1018.1
20260510152332 26 295 8.0 19.3 0.00 0.00 0.00 27 1018.1
20260510151329 26 265 4.8 14.5 0.00 0.00 0.00 31 1018.1
20260510150331 25 271 4.8 11.3 0.00 0.00 0.00 33 1018.2
20260510145326 25 277 0.0 14.5 0.00 0.00 0.00 37 1018.1
20260510144342 24 238 3.2 14.5 0.00 0.00 0.00 39 1018.0
20260510143335 23 210 4.8 11.3 0.00 0.00 0.00 41 1018.2
20260510142333 23 281 0.0 9.7 0.00 0.00 0.00 43 1017.4
20260510141329 23 263 0.0 1.6 0.00 0.00 0.00 46 1017.4
20260510140323 22 207 4.8 9.7 0.00 0.00 0.00 47 1017.3
20260510135342 22 238 0.0 3.2 0.00 0.00 0.00 47 1017.4
20260510134338 22 242 0.0 0.0 0.00 0.00 0.00 46 1017.3
20260510133333 21 230 0.0 0.0 0.00 0.00 0.00 47 1017.2
20260510132331 21 298 0.0 17.7 0.00 0.00 0.00 47 1017.0
20260510131329 20 295 8.0 20.9 0.00 0.00 0.00 48 1016.9
20260510130324 20 294 0.0 11.3 0.00 0.00 0.00 49 1016.8
20260510125338 20 267 0.0 17.7 0.00 0.00 0.00 49 1016.7
20260510124338 20 276 6.4 12.9 0.00 0.00 0.00 49 1016.5
20260510123332 19 270 0.0 9.7 0.00 0.00 0.00 50 1016.4
20260510122327 19 208 0.0 0.0 0.00 0.00 0.00 50 1016.4
20260510121326 19 281 0.0 0.0 0.00 0.00 0.00 50 1016.3
20260510120341 19 281 0.0 0.0 0.00 0.00 0.00 50 1016.2
20260510115335 19 238 0.0 8.0 0.00 0.00 0.00 50 1016.1
20260510114331 19 275 6.4 17.7 0.00 0.00 0.00 49 1016.1
20260510113329 18 264 0.0 1.6 0.00 0.00 0.00 49 1016.1
20260510112324 19 263 0.0 11.3 0.00 0.00 0.00 48 1015.9
20260510111338 18 261 0.0 4.8 0.00 0.00 0.00 48 1015.9
20260510110340 19 241 0.0 6.4 0.00 0.00 0.00 47 1015.9
20260510105335 19 302 0.0 8.0 0.00 0.00 0.00 46 1016.0
20260510104330 18 260 0.0 0.0 0.00 0.00 0.00 46 1016.0
20260510103330 18 280 0.0 0.0 0.00 0.00 0.00 45 1015.9
20260510102343 19 283 0.0 0.0 0.00 0.00 0.00 43 1015.8
20260510101338 19 277 0.0 0.0 0.00 0.00 0.00 41 1015.7
20260510100332 19 269 0.0 0.0 0.00 0.00 0.00 40 1015.7
20260510095328 19 271 0.0 0.0 0.00 0.00 0.00 39 1015.8
20260510094323 20 275 0.0 0.0 0.00 0.00 0.00 37 1014.9
20260510093339 19 286 0.0 0.0 0.00 0.00 0.00 36 1014.9
20260510092337 19 298 0.0 0.0 0.00 0.00 0.00 37 1014.8
20260510091329 19 300 0.0 0.0 0.00 0.00 0.00 37 1014.7
20260510090342 19 300 0.0 0.0 0.00 0.00 0.00 37 1014.7
20260510085337 18 300 0.0 0.0 0.00 0.00 0.00 40 1014.7
20260510084333 18 300 0.0 0.0 0.00 0.00 0.00 44 1014.7
20260510083328 18 295 0.0 0.0 0.00 0.00 0.00 45 1014.7
20260510082325 18 293 0.0 4.8 0.00 0.00 0.00 44 1014.9
20260510081324 18 293 0.0 0.0 0.00 0.00 0.00 44 1015.0
20260510080339 18 292 0.0 0.0 0.00 0.00 0.00 44 1015.0
20260510075334 19 292 0.0 0.0 0.00 0.00 0.00 44 1015.2
20260510074329 19 285 0.0 0.0 0.00 0.00 0.00 44 1015.3
20260510073329 18 288 0.0 0.0 0.00 0.00 0.00 44 1015.4
20260510072340 18 287 0.0 0.0 0.00 0.00 0.00 43 1015.5
20260510071335 19 281 0.0 3.2 0.00 0.00 0.00 41 1015.6
20260510070334 19 278 0.0 0.0 0.00 0.00 0.00 42 1015.5
20260510065329 19 271 0.0 0.0 0.00 0.00 0.00 41 1015.6
20260510064324 18 237 0.0 0.0 0.00 0.00 0.00 41 1015.7
20260510063323 18 234 0.0 0.0 0.00 0.00 0.00 41 1015.7
20260510062338 18 232 0.0 0.0 0.00 0.00 0.00 40 1015.8
20260510061333 18 232 0.0 0.0 0.00 0.00 0.00 39 1016.0
20260510060328 18 229 0.0 0.0 0.00 0.00 0.00 40 1016.1
20260510055327 19 170 0.0 0.0 0.00 0.00 0.00 37 1016.0
20260510054325 19 164 0.0 0.0 0.00 0.00 0.00 39 1015.9
20260510053340 20 157 0.0 0.0 0.00 0.00 0.00 37 1016.0
20260510052338 20 155 0.0 0.0 0.00 0.00 0.00 34 1016.1
20260510051334 20 155 0.0 0.0 0.00 0.00 0.00 33 1016.1
20260510050330 20 155 0.0 0.0 0.00 0.00 0.00 33 1016.2
20260510045325 21 155 0.0 0.0 0.00 0.00 0.00 34 1016.3
20260510044324 21 155 0.0 0.0 0.00 0.00 0.00 31 1016.2
20260510043339 22 155 0.0 1.6 0.00 0.00 0.00 31 1016.4
20260510042333 22 153 1.6 6.4 0.00 0.00 0.00 28 1016.3
20260510041335 22 154 0.0 4.8 0.00 0.00 0.00 28 1016.1
20260510040330 22 154 3.2 11.3 0.00 0.00 0.00 27 1016.3
20260510035328 23 157 0.0 8.0 0.00 0.00 0.00 26 1016.2
20260510034327 23 163 1.6 9.7 0.00 0.00 0.00 26 1016.1
20260510033325 23 186 0.0 8.0 0.00 0.00 0.00 25 1015.1
20260510032342 23 214 3.2 9.7 0.00 0.00 0.00 25 1015.0
20260510031338 24 157 3.2 9.7 0.00 0.00 0.00 23 1015.1
20260510030336 24 175 4.8 16.1 0.00 0.00 0.00 23 1014.9
20260510025331 24 142 6.4 19.3 0.00 0.00 0.00 23 1014.7
20260510024325 24 171 3.2 16.1 0.00 0.00 0.00 23 1014.7
20260510023344 23 148 4.8 8.0 0.00 0.00 0.00 23 1014.5
20260510022336 25 109 1.6 4.8 0.00 0.00 0.00 23 1014.4
20260510021331 25 108 0.0 0.0 0.00 0.00 0.00 19 1014.2
20260510020324 25 108 0.0 1.6 0.00 0.00 0.00 18 1014.0
20260510015340 26 108 1.6 4.8 0.00 0.00 0.00 16 1013.9
20260510014335 27 108 3.2 6.4 0.00 0.00 0.00 16 1013.9
20260510013330 27 109 0.0 0.0 0.00 0.00 0.00 14 1013.8
20260510012332 28 109 0.0 0.0 0.00 0.00 0.00 15 1013.7
20260510011325 29 109 0.0 3.2 0.00 0.00 0.00 13 1013.8
20260510010343 30 115 1.6 4.8 0.00 0.00 0.00 13 1013.7
20260510005336 30 115 0.0 6.4 0.00 0.00 0.00 13 1013.7
20260510004335 30 116 0.0 8.0 0.00 0.00 0.00 14 1013.6
20260510003330 30 119 0.0 9.7 0.00 0.00 0.00 12 1013.6
20260510002324 30 116 3.2 9.7 0.00 0.00 0.00 12 1013.8
20260510001323 31 76 3.2 8.0 0.00 0.00 0.00 12 1013.1
20260510000341 30 55 0.0 14.5 0.00 0.00 0.00 12 1013.1
20260509235336 31 144 3.2 11.3 0.00 0.00 0.00 12 1013.1
20260509234335 31 107 3.2 9.7 0.00 0.00 0.00 12 1013.1
20260509233330 31 128 0.0 9.7 0.00 0.00 0.00 12 1013.2
20260509232324 31 126 0.0 11.3 0.00 0.00 0.00 12 1013.3
20260509231339 31 160 6.4 9.7 0.00 0.00 0.00 12 1013.4
20260509230339 31 117 4.8 9.7 0.00 0.00 0.00 12 1013.5
20260509225335 31 108 3.2 6.4 0.00 0.00 0.00 12 1013.6
20260509224330 31 106 4.8 14.5 0.00 0.00 0.00 11 1013.7
20260509223329 31 80 6.4 14.5 0.00 0.00 0.00 12 1013.8
20260509222326 31 134 6.4 14.5 0.00 0.00 0.00 12 1014.0
20260509221341 31 128 6.4 17.7 0.00 0.00 0.00 13 1014.2
20260509220336 31 123 0.0 16.1 0.00 0.00 0.00 12 1014.4
20260509215335 31 200 3.2 16.1 0.00 0.48 0.00 13 1014.6
20260509214330 31 218 9.7 17.7 0.00 0.48 0.00 13 1014.6
20260509213328 31 282 4.8 22.5 0.00 0.48 0.00 13 1014.8
20260509212326 31 128 0.0 22.5 0.00 0.48 0.00 13 1014.1
20260509211341 31 123 4.8 19.3 0.00 0.48 0.00 12 1014.3
20260509210336 31 304 0.0 3.2 0.00 0.48 0.00 11 1014.5
20260509205335 31 15 0.0 16.1 0.00 0.48 0.00 11 1014.7
20260509204330 31 333 0.0 14.5 0.00 0.48 0.00 10 1014.8
20260509203326 30 304 6.4 20.9 0.00 0.48 0.00 13 1014.9